EW4443 Weather Reports


time (UTC)temp
C
wind
direction
speed
KPH
gust
KPH
rain 1hr
cm
rain 24hr
cm
rain mn
cm
humidity
%
barometer
mb
20260904054340 32 180 1.6 8.0 0.00 0.00 0.00 45 1008.3
20260904053840 32 180 1.6 11.3 0.00 0.00 0.00 45 1008.7
20260904053340 32 203 1.6 14.5 0.00 0.00 0.00 45 1008.3
20260904052840 32 158 3.2 14.5 0.00 0.00 0.00 45 1008.3
20260904052611 32 113 3.2 12.9 0.00 0.00 0.00 45 1008.3
20260904051839 32 158 0.0 8.0 0.00 0.00 0.00 44 1008.3
20260904051339 32 203 1.6 8.0 0.00 0.00 0.00 44 1008.3
20260904050838 32 180 1.6 4.8 0.00 0.00 0.00 43 1008.3
20260904050340 32 203 0.0 6.4 0.00 0.00 0.00 43 1008.0
20260904045840 32 203 1.6 8.0 0.00 0.00 0.00 43 1008.3
20260904045340 32 203 1.6 11.3 0.00 0.00 0.00 43 1008.3
20260904044845 32 225 1.6 11.3 0.00 0.00 0.00 43 1008.3
20260904044340 32 180 3.2 14.5 0.00 0.00 0.00 43 1008.7
20260904043838 32 180 3.2 14.5 0.00 0.00 0.00 41 1008.3
20260904043339 32 158 1.6 9.7 0.00 0.00 0.00 41 1008.3
20260904042838 32 203 1.6 9.7 0.00 0.00 0.00 41 1008.3
20260904042338 32 203 1.6 9.7 0.00 0.00 0.00 41 1008.3
20260904041840 32 203 1.6 9.7 0.00 0.00 0.00 41 1008.0
20260904041339 32 180 1.6 9.7 0.00 0.00 0.00 41 1008.0
20260904040844 32 270 0.0 6.4 0.00 0.00 0.00 43 1008.0
20260904040839 32 225 0.0 4.8 0.00 0.00 0.00 43 1008.0
20260904035839 32 180 0.0 6.4 0.00 0.00 0.00 43 1008.0
20260904035338 32 180 0.0 6.4 0.00 0.00 0.00 43 1008.0
20260904034840 32 158 1.6 6.4 0.00 0.00 0.00 43 1007.6
20260904034609 32 180 0.0 4.8 0.00 0.00 0.00 43 1007.6
20260904033842 32 135 1.6 8.0 0.00 0.00 0.00 43 1007.3
20260904033838 32 135 0.0 8.0 0.00 0.00 0.00 43 1007.6
20260904032838 32 203 0.0 6.4 0.00 0.00 0.00 41 1007.6
20260904032339 32 113 0.0 1.6 0.00 0.00 0.00 41 1007.3
20260904031840 32 113 0.0 3.2 0.00 0.00 0.00 41 1007.3
20260904031339 32 158 0.0 3.2 0.00 0.00 0.00 41 1007.3
20260904030837 32 248 0.0 4.8 0.00 0.00 0.00 41 1007.3
20260904030337 32 203 0.0 4.8 0.00 0.00 0.00 41 1007.3
20260904025838 33 158 0.0 1.6 0.00 0.00 0.00 41 1007.3
20260904025338 33 113 0.0 1.6 0.00 0.00 0.00 41 1007.3
20260904025109 33 338 0.0 3.2 0.00 0.00 0.00 41 1006.9
20260904024610 33 248 0.0 3.2 0.00 0.00 0.00 41 1006.9
20260904023839 33 113 0.0 4.8 0.00 0.00 0.00 40 1006.5
20260904023611 33 248 0.0 4.8 0.00 0.00 0.00 41 1006.9
20260904022839 33 293 0.0 4.8 0.00 0.00 0.00 41 1006.9
20260904022337 33 270 0.0 4.8 0.00 0.00 0.00 41 1006.9
20260904021838 33 180 1.6 4.8 0.00 0.00 0.00 41 1006.9
20260904021339 33 158 0.0 4.8 0.00 0.00 0.00 41 1006.5
20260904020837 33 135 0.0 8.0 0.00 0.00 0.00 40 1006.9
20260904020338 33 270 1.6 11.3 0.00 0.00 0.00 40 1006.9
20260904015839 33 270 1.6 12.9 0.00 0.00 0.00 41 1006.9
20260904015339 33 180 3.2 12.9 0.00 0.00 0.00 40 1006.9
20260904014838 33 180 1.6 12.9 0.00 0.00 0.00 40 1006.9
20260904014339 33 225 1.6 11.3 0.00 0.00 0.00 41 1006.9
20260904014111 33 180 1.6 14.5 0.00 0.00 0.00 40 1007.3
20260904013338 33 203 3.2 17.7 0.00 0.00 0.00 40 1006.9
20260904012837 34 158 3.2 17.7 0.00 0.00 0.00 40 1006.9
20260904012337 34 158 4.8 17.7 0.00 0.00 0.00 37 1006.9
20260904011838 35 180 3.2 16.1 0.00 0.00 0.00 37 1006.9
20260904011339 35 180 3.2 20.9 0.00 0.00 0.00 37 1006.9
20260904010838 36 180 4.8 20.9 0.00 0.00 0.00 35 1006.9
20260904010338 36 158 3.2 16.1 0.00 0.00 0.00 34 1006.5
20260904005839 36 158 1.6 6.4 0.00 0.00 0.00 34 1006.2
20260904005337 36 180 1.6 6.4 0.00 0.00 0.00 32 1006.5
20260904004837 36 203 1.6 8.0 0.00 0.00 0.00 32 1006.5
20260904004608 36 203 1.6 9.7 0.00 0.00 0.00 31 1006.2
20260904004108 36 180 1.6 9.7 0.00 0.00 0.00 31 1006.2
20260904003337 37 180 1.6 9.7 0.00 0.00 0.00 31 1006.2
20260904003109 37 180 1.6 9.7 0.00 0.00 0.00 31 1006.2
20260904002338 37 180 0.0 9.7 0.00 0.00 0.00 31 1006.2
20260904001839 37 180 1.6 11.3 0.00 0.00 0.00 31 1006.2
20260904001609 37 180 1.6 11.3 0.00 0.00 0.00 31 1006.2
20260904000839 37 180 1.6 9.7 0.00 0.00 0.00 31 1006.2
20260904000340 37 203 3.2 9.7 0.00 0.00 0.00 31 1006.2
20260903235837 37 248 0.0 6.4 0.00 0.00 0.00 31 1006.2
20260903235337 37 180 0.0 6.4 0.00 0.00 0.00 32 1006.2
20260903234838 37 90 1.6 9.7 0.00 0.00 0.00 31 1006.2
20260903234338 37 248 1.6 9.7 0.00 0.00 0.00 31 1006.2
20260903233838 37 225 1.6 9.7 0.00 0.00 0.00 30 1006.2
20260903233338 37 248 0.0 6.4 0.00 0.00 0.00 34 1006.5
20260903232838 37 338 0.0 6.4 0.00 0.00 0.00 31 1006.5
20260903232338 37 45 0.0 8.0 0.00 0.00 0.00 31 1006.5
20260903231836 37 203 1.6 11.3 0.00 0.00 0.00 30 1006.5
20260903231337 37 23 1.6 11.3 0.00 0.00 0.00 30 1006.5
20260903231108 38 203 1.6 12.9 0.00 0.00 0.00 30 1006.5
20260903230338 38 135 3.2 12.9 0.00 0.00 0.00 30 1006.9
20260903225837 38 158 1.6 12.9 0.00 0.00 0.00 30 1006.9
20260903225608 38 203 1.6 12.9 0.00 0.00 0.00 30 1006.9
20260903224837 38 225 1.6 12.9 0.00 0.00 0.00 30 1006.9
20260903224609 38 203 0.0 6.4 0.00 0.00 0.00 31 1006.9
20260903223837 38 203 0.0 6.4 0.00 0.00 0.00 30 1006.9
20260903223338 38 90 1.6 6.4 0.00 0.00 0.00 30 1007.3
20260903222836 38 270 1.6 6.4 0.00 0.00 0.00 30 1007.3
20260903222336 38 180 0.0 4.8 0.00 0.00 0.00 30 1007.3
20260903221836 38 180 0.0 11.3 0.00 0.00 0.00 31 1007.3
20260903221337 38 113 3.2 11.3 0.00 0.00 0.00 30 1007.3
20260903220837 38 180 1.6 8.0 0.00 0.00 0.00 30 1007.6
20260903220337 37 180 1.6 8.0 0.00 0.00 0.00 31 1007.6
20260903220109 37 158 0.0 3.2 0.00 0.00 0.00 30 1007.6
20260903215318 37 158 0.0 11.3 0.00 0.00 0.00 32 1007.6
20260903214817 37 203 3.2 11.3 0.00 0.00 0.00 30 1008.0
20260903214317 37 203 3.2 12.9 0.00 0.00 0.00 30 1008.0
20260903213818 37 158 3.2 12.9 0.00 0.00 0.00 30 1008.3
20260903213317 37 270 1.6 14.5 0.00 0.00 0.00 32 1008.3
20260903212817 37 203 3.2 14.5 0.00 0.00 0.00 30 1008.3
20260903212318 37 113 1.6 14.5 0.00 0.00 0.00 31 1008.3
20260903211818 37 158 3.2 14.5 0.00 0.00 0.00 30 1008.7
20260903211549 37 180 0.0 9.7 0.00 0.00 0.00 30 1008.7
20260903211535 37 248 1.6 11.3 0.00 0.00 0.00 32 1008.7
20260903210818 37 203 1.6 9.7 0.00 0.00 0.00 30 1008.7
20260903205817 37 158 3.2 16.1 0.00 0.00 0.00 31 1009.0
20260903205321 37 180 3.2 16.1 0.00 0.00 0.00 30 1009.0
20260903205317 37 180 4.8 16.1 0.00 0.00 0.00 31 1009.0
20260903204317 37 270 0.0 6.4 0.00 0.00 0.00 34 1009.0
20260903203822 37 180 3.2 16.1 0.00 0.00 0.00 31 1009.3
20260903203818 37 158 1.6 16.1 0.00 0.00 0.00 31 1009.0
20260903202818 37 270 3.2 14.5 0.00 0.00 0.00 30 1009.3
20260903202318 37 203 1.6 14.5 0.00 0.00 0.00 31 1009.3
20260903201816 37 248 1.6 12.9 0.00 0.00 0.00 30 1009.7
20260903201547 37 203 3.2 14.5 0.00 0.00 0.00 31 1009.3
20260903200816 37 203 1.6 14.5 0.00 0.00 0.00 31 1009.7
20260903200316 37 203 1.6 12.9 0.00 0.00 0.00 30 1009.7
20260903195817 37 90 1.6 9.7 0.00 0.00 0.00 30 1010.0
20260903195549 37 203 1.6 14.5 0.00 0.00 0.00 31 1009.7
20260903194817 37 158 3.2 14.5 0.00 0.00 0.00 31 1010.0
20260903194317 37 203 1.6 12.9 0.00 0.00 0.00 32 1010.0
20260903193818 36 180 1.6 12.9 0.00 0.00 0.00 34 1010.0
20260903193316 36 203 1.6 12.9 0.00 0.00 0.00 34 1010.0
20260903192816 36 225 1.6 12.9 0.00 0.00 0.00 34 1010.0
20260903192547 36 293 1.6 9.7 0.00 0.00 0.00 35 1010.5
20260903191816 36 135 1.6 11.3 0.00 0.00 0.00 34 1010.5
20260903191316 36 180 3.2 11.3 0.00 0.00 0.00 35 1010.5
20260903190816 36 180 1.6 11.3 0.00 0.00 0.00 35 1010.5
20260903190316 36 203 0.0 11.3 0.00 0.00 0.00 35 1010.8
20260903190047 36 203 1.6 12.9 0.00 0.00 0.00 37 1010.5
20260903185321 36 248 3.2 16.1 0.00 0.00 0.00 35 1010.8
20260903185317 36 158 1.6 12.9 0.00 0.00 0.00 35 1010.8
20260903184547 36 158 3.2 16.1 0.00 0.00 0.00 35 1010.8
20260903183815 36 158 1.6 9.7 0.00 0.00 0.00 37 1011.1
20260903183315 36 203 1.6 9.7 0.00 0.00 0.00 37 1011.1
20260903182815 36 23 1.6 9.7 0.00 0.00 0.00 37 1011.1
20260903182316 36 203 1.6 12.9 0.00 0.00 0.00 37 1011.1
20260903181816 36 270 1.6 12.9 0.00 0.00 0.00 37 1011.5
20260903181315 36 225 1.6 9.7 0.00 0.00 0.00 35 1011.1
20260903180815 35 180 1.6 9.7 0.00 0.00 0.00 37 1011.5
20260903180315 35 203 1.6 9.7 0.00 0.00 0.00 39 1011.8
20260903180046 35 180 0.0 6.4 0.00 0.00 0.00 40 1011.8
20260903175314 35 113 1.6 6.4 0.00 0.00 0.00 40 1011.5
20260903174815 35 248 1.6 6.4 0.00 0.00 0.00 40 1011.8
20260903174314 35 113 0.0 12.9 0.00 0.00 0.00 40 1011.8
20260903173815 35 158 1.6 12.9 0.00 0.00 0.00 40 1011.8
20260903173316 34 135 1.6 9.7 0.00 0.00 0.00 40 1011.8
20260903172815 34 45 1.6 9.7 0.00 0.00 0.00 40 1012.1
20260903172315 34 248 1.6 11.3 0.00 0.00 0.00 41 1012.1
20260903171814 34 180 1.6 11.3 0.00 0.00 0.00 40 1011.8
20260903171546 34 158 1.6 11.3 0.00 0.00 0.00 41 1011.8
20260903170814 33 180 1.6 12.9 0.00 0.00 0.00 41 1011.8
20260903170314 33 158 1.6 12.9 0.00 0.00 0.00 43 1011.8
20260903170046 33 180 3.2 12.9 0.00 0.00 0.00 43 1012.1
20260903165315 33 180 1.6 11.3 0.00 0.00 0.00 43 1011.8
20260903164817 33 225 1.6 11.3 0.00 0.00 0.00 43 1012.1
20260903164315 33 113 1.6 11.3 0.00 0.00 0.00 44 1012.1
20260903164047 33 180 1.6 8.0 0.00 0.00 0.00 45 1012.1
20260903163315 33 180 1.6 8.0 0.00 0.00 0.00 45 1012.1
20260903162815 33 180 1.6 9.7 0.00 0.00 0.00 45 1012.1
20260903162314 32 113 3.2 9.7 0.00 0.00 0.00 45 1012.1
20260903161813 32 248 1.6 9.7 0.00 0.00 0.00 45 1012.1
20260903161314 32 225 3.2 9.7 0.00 0.00 0.00 46 1012.1
20260903160815 32 158 1.6 6.4 0.00 0.00 0.00 48 1012.1
20260903160315 32 180 1.6 9.7 0.00 0.00 0.00 46 1012.1
20260903160045 32 135 1.6 9.7 0.00 0.00 0.00 48 1012.1
20260903155315 32 248 1.6 8.0 0.00 0.00 0.00 49 1012.1
20260903154815 31 135 1.6 8.0 0.00 0.00 0.00 50 1012.1
20260903154314 31 225 1.6 9.7 0.00 0.00 0.00 50 1012.5
20260903153813 31 180 1.6 9.7 0.00 0.00 0.00 50 1012.5
20260903153314 31 180 1.6 8.0 0.00 0.00 0.00 50 1012.1
20260903152814 31 180 1.6 8.0 0.00 0.00 0.00 53 1012.1
20260903152314 31 225 1.6 8.0 0.00 0.00 0.00 53 1012.5
20260903151756 30 158 1.6 8.0 0.00 0.00 0.00 54 1012.1
20260903151256 30 203 1.6 11.3 0.00 0.00 0.00 54 1012.1
20260903150756 30 225 1.6 11.3 0.00 0.00 0.00 55 1012.1
20260903150256 30 203 1.6 9.7 0.00 0.00 0.00 55 1012.1
20260903145755 30 180 1.6 11.3 0.00 0.00 0.00 55 1012.1
20260903145254 30 158 1.6 11.3 0.00 0.00 0.00 55 1012.1
20260903144755 29 225 1.6 9.7 0.00 0.00 0.00 58 1012.1
20260903144254 29 158 3.2 9.7 0.00 0.00 0.00 58 1012.1
20260903143756 29 180 1.6 8.0 0.00 0.00 0.00 59 1012.1
20260903143531 28 270 0.0 8.0 0.00 0.00 0.00 59 1012.1
20260903143255 28 203 0.0 4.8 0.00 0.00 0.00 59 1012.1
20260903142255 28 180 1.6 8.0 0.00 0.00 0.00 60 1012.1
20260903141755 28 203 0.0 6.4 0.00 0.00 0.00 60 1011.8
20260903141255 28 135 0.0 4.8 0.00 0.00 0.00 61 1011.8
20260903140755 28 158 0.0 1.6 0.00 0.00 0.00 61 1011.8
20260903140254 28 203 0.0 1.6 0.00 0.00 0.00 61 1011.8
20260903135754 28 90 0.0 0.0 0.00 0.00 0.00 61 1011.8
20260903135255 28 338 0.0 0.0 0.00 0.00 0.00 61 1011.8
20260903134800 28 90 0.0 0.0 0.00 0.00 0.00 60 1011.5
20260903134755 28 45 0.0 0.0 0.00 0.00 0.00 61 1012.1
20260903134031 28 45 0.0 0.0 0.00 0.00 0.00 59 1011.5
20260903133755 28 45 0.0 0.0 0.00 0.00 0.00 60 1011.5
20260903133025 28 45 0.0 0.0 0.00 0.00 0.00 59 1011.5
20260903132254 28 23 0.0 0.0 0.00 0.00 0.00 59 1011.1
20260903131753 28 23 0.0 0.0 0.00 0.00 0.00 59 1011.1
20260903131525 28 23 0.0 0.0 0.00 0.00 0.00 59 1011.1
20260903130755 28 113 0.0 0.0 0.00 0.00 0.00 58 1011.1
20260903130526 28 180 0.0 0.0 0.00 0.00 0.00 58 1011.1
20260903125755 28 270 0.0 0.0 0.00 0.00 0.00 58 1011.1
20260903125255 28 90 0.0 0.0 0.00 0.00 0.00 56 1011.1
20260903124755 28 293 0.0 0.0 0.00 0.00 0.00 56 1011.1
20260903124255 28 23 0.0 0.0 0.00 0.00 0.00 56 1011.1
20260903123754 28 90 0.0 0.0 0.00 0.00 0.00 55 1010.8
20260903123254 28 90 0.0 0.0 0.00 0.00 0.00 56 1011.1
20260903122754 28 23 0.0 1.6 0.00 0.00 0.00 55 1010.8
20260903122254 28 45 0.0 1.6 0.00 0.00 0.00 55 1010.8
20260903121755 28 270 0.0 1.6 0.00 0.00 0.00 55 1010.8
20260903121255 28 0 0.0 1.6 0.00 0.00 0.00 54 1010.8
20260903120755 28 315 0.0 0.0 0.00 0.00 0.00 54 1010.8
20260903120255 28 270 0.0 0.0 0.00 0.00 0.00 53 1010.8
20260903115756 28 225 0.0 0.0 0.00 0.00 0.00 53 1010.8
20260903115255 28 203 0.0 0.0 0.00 0.00 0.00 53 1010.8
20260903114754 28 180 0.0 0.0 0.00 0.00 0.00 53 1010.8
20260903114256 28 180 0.0 0.0 0.00 0.00 0.00 53 1010.5
20260903113754 28 23 0.0 0.0 0.00 0.00 0.00 51 1010.5
20260903113255 28 23 0.0 0.0 0.00 0.00 0.00 53 1010.5
20260903113027 28 45 0.0 0.0 0.00 0.00 0.00 51 1010.5
20260903112255 28 338 0.0 0.0 0.00 0.00 0.00 53 1010.5
20260903111756 28 0 0.0 0.0 0.00 0.00 0.00 53 1010.5
20260903111255 28 270 0.0 0.0 0.00 0.00 0.00 50 1010.5
20260903110757 28 270 0.0 0.0 0.00 0.00 0.00 51 1010.0
20260903110753 28 0 0.0 0.0 0.00 0.00 0.00 51 1010.5
20260903105754 28 158 0.0 0.0 0.00 0.00 0.00 50 1010.0
20260903105254 28 158 0.0 0.0 0.00 0.00 0.00 49 1010.5
20260903105026 28 180 0.0 1.6 0.00 0.00 0.00 50 1010.5
20260903104257 28 180 0.0 3.2 0.00 0.00 0.00 49 1010.5
20260903103756 28 203 0.0 3.2 0.00 0.00 0.00 49 1010.5
20260903103526 29 203 0.0 0.0 0.00 0.00 0.00 50 1010.5
20260903102757 29 203 0.0 0.0 0.00 0.00 0.00 50 1010.0
20260903102254 29 293 0.0 0.0 0.00 0.00 0.00 50 1010.5
20260903101754 29 45 0.0 0.0 0.00 0.00 0.00 50 1010.0
20260903101254 29 90 0.0 0.0 0.00 0.00 0.00 50 1010.0
20260903100754 29 45 0.0 0.0 0.00 0.00 0.00 53 1010.0
20260903100254 29 23 0.0 0.0 0.00 0.00 0.00 51 1010.5
20260903095755 29 180 0.0 0.0 0.00 0.00 0.00 51 1010.5
20260903095255 29 68 0.0 4.8 0.00 0.00 0.00 51 1010.0
20260903094755 29 68 0.0 4.8 0.00 0.00 0.00 50 1010.0
20260903094526 30 23 0.0 0.0 0.00 0.00 0.00 50 1010.0
20260903093755 30 45 0.0 0.0 0.00 0.00 0.00 50 1010.5
20260903093254 30 68 0.0 0.0 0.00 0.00 0.00 50 1010.0
20260903092754 30 113 0.0 0.0 0.00 0.00 0.00 50 1010.0
20260903092253 30 248 0.0 0.0 0.00 0.00 0.00 51 1010.0
20260903091755 30 315 0.0 0.0 0.00 0.00 0.00 50 1010.0
20260903091255 30 45 0.0 0.0 0.00 0.00 0.00 50 1010.0
20260903091026 30 270 0.0 0.0 0.00 0.00 0.00 49 1010.0
20260903090255 30 270 0.0 0.0 0.00 0.00 0.00 50 1010.0
20260903085755 30 270 0.0 0.0 0.00 0.00 0.00 50 1010.0
20260903085255 30 270 0.0 1.6 0.00 0.00 0.00 48 1010.0
20260903084754 31 270 0.0 1.6 0.00 0.00 0.00 49 1010.0
20260903084524 31 180 0.0 1.6 0.00 0.00 0.00 48 1010.5
20260903084242 31 180 0.0 4.8 0.00 0.00 0.00 48 1010.5
20260903084228 31 225 0.0 3.2 0.00 0.00 0.00 48 1010.0
20260903082755 31 180 0.0 4.8 0.00 0.00 0.00 48 1010.5
20260903082255 31 203 0.0 3.2 0.00 0.00 0.00 46 1010.0
20260903081755 31 180 0.0 3.2 0.00 0.00 0.00 46 1010.5
20260903081255 31 203 0.0 1.6 0.00 0.00 0.00 46 1010.0
20260903081026 31 203 0.0 3.2 0.00 0.00 0.00 46 1010.0
20260903080254 31 203 0.0 3.2 0.00 0.00 0.00 46 1010.0
20260903075754 31 203 0.0 0.0 0.00 0.00 0.00 46 1010.0
20260903075254 31 203 0.0 1.6 0.00 0.00 0.00 46 1010.0
20260903075026 31 203 0.0 3.2 0.00 0.00 0.00 45 1010.0
20260903074255 31 180 0.0 3.2 0.00 0.00 0.00 45 1010.0
20260903073756 31 180 0.0 1.6 0.00 0.00 0.00 45 1010.0
20260903073526 31 203 0.0 3.2 0.00 0.00 0.00 45 1010.0
20260903072755 32 270 0.0 4.8 0.00 0.00 0.00 45 1010.0
20260903072525 32 248 0.0 4.8 0.00 0.00 0.00 45 1010.0
20260903072025 32 270 0.0 1.6 0.00 0.00 0.00 45 1010.0
20260903071255 32 270 0.0 11.3 0.00 0.00 0.00 45 1010.5
20260903070754 32 270 0.0 11.3 0.00 0.00 0.00 45 1010.5
20260903070253 32 180 0.0 6.4 0.00 0.00 0.00 45 1010.5
20260903070025 32 203 1.6 6.4 0.00 0.00 0.00 44 1010.5
20260903065255 32 203 1.6 4.8 0.00 0.00 0.00 44 1010.0
20260903064755 32 180 1.6 6.4 0.00 0.00 0.00 44 1010.0
20260903064254 32 180 1.6 6.4 0.00 0.00 0.00 44 1010.0
20260903063755 32 225 0.0 0.0 0.00 0.00 0.00 44 1009.7
20260903063255 32 248 0.0 0.0 0.00 0.00 0.00 44 1010.0
20260903062753 32 248 0.0 0.0 0.00 0.00 0.00 43 1009.7
20260903062254 32 248 0.0 0.0 0.00 0.00 0.00 41 1009.7
20260903061753 32 270 0.0 0.0 0.00 0.00 0.00 44 1009.7
20260903061254 32 203 0.0 0.0 0.00 0.00 0.00 43 1010.0
20260903060754 32 203 0.0 0.0 0.00 0.00 0.00 43 1010.0
20260903060255 33 225 0.0 0.0 0.00 0.00 0.00 43 1009.7
20260903055755 33 225 0.0 0.0 0.00 0.00 0.00 43 1009.7
20260903055525 33 203 0.0 1.6 0.00 0.00 0.00 40 1009.7
20260903055025 33 203 0.0 1.6 0.00 0.00 0.00 40 1010.0